TRA19P EHRD-LEPA

Flight info

Callsign TRA19P
Flight time 1h 33m
Altitude 37000
Route WOOD2A WOODY N872 CIV KOVIN DUCRA RESMI DEKOD DISAK DIRMO VALKU ATSUP MINSO DEGOL PPG ALBER GIR NENDA P84 LORES LORE1P
Aircraft A21N/M-SDE2E3FGHIRWXY/LB1

Departure

Time 2026-05-04 16:14
Airport Rotterdam The Hague Airport (EHRD)

Arrival

Time 2026-05-04 17:47
Airport Palma de Mallorca Airport (LEPA)
Time Latitude Longitude Altitude Speed Heading
2026-05-04 16:01 51.95168 4.43347 -15 ft 0 kts 327°
2026-05-04 16:10 51.95193 4.43298 1 ft 5 kts 285°
2026-05-04 16:11 51.95128 4.43083 2 ft 3 kts 245°
2026-05-04 16:11 51.95121 4.43060 1 ft 2 kts 245°
2026-05-04 16:12 51.95111 4.43019 1 ft 0 kts 250°
2026-05-04 16:12 51.95112 4.42967 1 ft 12 kts 282°
2026-05-04 16:13 51.95210 4.42866 2 ft 8 kts 358°
2026-05-04 16:13 51.95492 4.43535 1 ft 93 kts 57°
2026-05-04 16:14 51.96552 4.46199 654 ft 155 kts 53°
2026-05-04 16:14 51.97750 4.49423 1977 ft 178 kts 60°
2026-05-04 16:15 51.99264 4.56503 2946 ft 262 kts 101°
2026-05-04 16:16 51.97088 4.60963 4755 ft 265 kts 161°
2026-05-04 16:16 51.92010 4.58721 7306 ft 269 kts 215°
2026-05-04 16:17 51.88879 4.55277 8980 ft 275 kts 215°
2026-05-04 16:18 51.83669 4.50499 10670 ft 313 kts 203°
2026-05-04 16:18 51.81563 4.49251 11005 ft 332 kts 199°
2026-05-04 16:19 51.74412 4.46249 12307 ft 374 kts 193°
2026-05-04 16:19 51.69257 4.44577 13787 ft 382 kts 192°
2026-05-04 16:20 51.61300 4.42255 15717 ft 392 kts 191°
2026-05-04 16:20 51.55880 4.40756 16954 ft 399 kts 191°
2026-05-04 16:21 51.47603 4.38518 18694 ft 408 kts 190°
2026-05-04 16:22 51.41964 4.36947 19775 ft 412 kts 195°
2026-05-04 16:22 51.33945 4.31792 21352 ft 417 kts 206°
2026-05-04 16:23 51.26036 4.25681 22904 ft 424 kts 206°
2026-05-04 16:24 51.15227 4.17898 24645 ft 432 kts 201°
2026-05-04 16:25 51.09542 4.14579 25463 ft 436 kts 200°
2026-05-04 16:26 50.99004 4.08753 27159 ft 436 kts 199°
2026-05-04 16:26 50.89554 4.03561 29058 ft 428 kts 201°
2026-05-04 16:27 50.84913 4.00742 30000 ft 425 kts 201°
2026-05-04 16:28 50.76764 3.95597 31315 ft 420 kts 202°
2026-05-04 16:28 50.68678 3.90445 32589 ft 415 kts 202°
2026-05-04 16:29 50.58055 3.83636 34137 ft 410 kts 203°
2026-05-04 16:30 50.50179 3.78328 34845 ft 412 kts 204°
2026-05-04 16:31 50.44910 3.74749 35291 ft 413 kts 204°
2026-05-04 16:31 50.36968 3.69359 35925 ft 415 kts 204°
2026-05-04 16:32 50.29030 3.63989 36513 ft 417 kts 204°
2026-05-04 16:33 50.23725 3.60412 36842 ft 409 kts 204°
2026-05-04 16:33 50.18482 3.56885 36931 ft 413 kts 204°
2026-05-04 16:34 50.07696 3.49651 36933 ft 416 kts 204°
2026-05-04 16:35 49.43884 3.14219 36923 ft 418 kts 197°
2026-05-04 16:36 49.10396 3.00225 36920 ft 416 kts 197°
2026-05-04 16:37 48.76888 2.86305 36930 ft 415 kts 197°
2026-05-04 16:38 48.49702 2.75140 36935 ft 414 kts 197°
2026-05-04 16:39 48.14686 2.60941 36917 ft 412 kts 197°
2026-05-04 16:40 47.70595 2.43346 36913 ft 410 kts 198°
2026-05-04 16:41 47.15354 2.21719 36908 ft 410 kts 198°
2026-05-04 16:42 46.82005 2.34621 36887 ft 433 kts 162°
2026-05-04 16:43 46.65953 2.44164 36882 ft 432 kts 163°
2026-05-04 16:43 46.57563 2.49035 36886 ft 433 kts 163°
2026-05-04 16:45 46.40777 2.58665 36886 ft 433 kts 163°
2026-05-04 16:46 45.91943 2.85988 36905 ft 430 kts 165°
2026-05-04 16:47 45.69132 2.94610 36907 ft 420 kts 183°
2026-05-04 16:47 45.45870 2.94443 36914 ft 417 kts 185°
2026-05-04 16:48 44.99430 2.93294 36931 ft 417 kts 185°
2026-05-04 16:49 44.87396 2.92968 36925 ft 416 kts 186°
2026-05-04 16:50 44.75812 2.92242 36923 ft 416 kts 187°
2026-05-04 16:51 44.67145 2.91621 36924 ft 415 kts 187°
2026-05-04 16:52 44.55636 2.90784 36929 ft 415 kts 187°
2026-05-04 16:53 44.46996 2.90157 36926 ft 414 kts 187°
2026-05-04 16:54 44.35466 2.89324 36929 ft 415 kts 187°
2026-05-04 16:55 44.18214 2.88083 36923 ft 415 kts 187°
2026-05-04 16:56 44.03810 2.87054 36918 ft 414 kts 187°
2026-05-04 16:57 43.95189 2.86436 36920 ft 416 kts 187°
2026-05-04 16:58 43.83680 2.85619 36921 ft 414 kts 187°
2026-05-04 17:00 43.66303 2.85415 36904 ft 415 kts 184°
2026-05-04 17:01 43.51842 2.85605 36911 ft 417 kts 184°
2026-05-04 17:02 43.40231 2.85771 36923 ft 417 kts 184°
2026-05-04 17:03 43.31534 2.85896 36912 ft 418 kts 184°
2026-05-04 17:03 43.18074 2.86092 36902 ft 418 kts 184°
2026-05-04 17:04 43.06413 2.86263 36898 ft 418 kts 184°
2026-05-04 17:05 42.94775 2.86430 36904 ft 419 kts 184°
2026-05-04 17:06 42.86068 2.86555 36906 ft 418 kts 184°
2026-05-04 17:07 42.78323 2.86647 36908 ft 417 kts 185°
2026-05-04 17:07 42.71550 2.86205 36910 ft 416 kts 188°
2026-05-04 17:08 42.62934 2.85292 36909 ft 415 kts 188°
2026-05-04 17:09 42.57173 2.84625 36908 ft 415 kts 189°
2026-05-04 17:09 42.51419 2.83950 36905 ft 415 kts 189°
2026-05-04 17:10 42.37007 2.82265 36903 ft 416 kts 189°
2026-05-04 17:11 42.31245 2.81595 36907 ft 415 kts 189°
2026-05-04 17:12 42.22638 2.80597 36914 ft 416 kts 189°
2026-05-04 17:13 42.08205 2.78925 36915 ft 416 kts 189°
2026-05-04 17:14 41.96675 2.77598 36911 ft 417 kts 188°
2026-05-04 17:15 41.87964 2.76763 36911 ft 418 kts 188°
2026-05-04 17:16 41.76346 2.75788 36919 ft 419 kts 188°
2026-05-04 17:17 41.65666 2.75058 36922 ft 420 kts 186°
2026-05-04 17:18 41.53985 2.74539 36918 ft 421 kts 186°
2026-05-04 17:19 41.42227 2.74042 36177 ft 422 kts 186°
2026-05-04 17:19 41.36352 2.73798 34410 ft 424 kts 186°
2026-05-04 17:20 41.30431 2.73547 32608 ft 423 kts 186°
2026-05-04 17:20 41.24604 2.73309 31108 ft 415 kts 186°
2026-05-04 17:20 41.21727 2.73192 30378 ft 412 kts 186°
2026-05-04 17:21 41.16039 2.72959 28873 ft 404 kts 186°
2026-05-04 17:21 41.10515 2.72736 27448 ft 395 kts 186°
2026-05-04 17:22 41.07778 2.72624 26748 ft 391 kts 186°
2026-05-04 17:22 41.05072 2.72515 26093 ft 387 kts 186°
2026-05-04 17:23 40.97118 2.72186 24170 ft 375 kts 186°
2026-05-04 17:23 40.94517 2.72079 23573 ft 372 kts 186°
2026-05-04 17:23 40.89398 2.71867 22196 ft 364 kts 186°
2026-05-04 17:24 40.86886 2.71772 21696 ft 358 kts 187°
2026-05-04 17:24 40.79646 2.71494 19904 ft 343 kts 187°
2026-05-04 17:25 40.77268 2.71390 19259 ft 341 kts 187°
2026-05-04 17:25 40.72534 2.71181 17972 ft 338 kts 186°
2026-05-04 17:26 40.67817 2.70977 17118 ft 336 kts 186°
2026-05-04 17:26 40.60930 2.70702 16933 ft 332 kts 186°
2026-05-04 17:27 40.56318 2.70516 16574 ft 330 kts 186°
2026-05-04 17:27 40.51782 2.71078 15352 ft 336 kts 161°
2026-05-04 17:28 40.47668 2.73980 14220 ft 333 kts 155°
2026-05-04 17:29 40.41738 2.78492 12432 ft 324 kts 155°
2026-05-04 17:29 40.35947 2.82680 10993 ft 306 kts 156°
2026-05-04 17:30 40.30609 2.86388 10065 ft 280 kts 158°
2026-05-04 17:31 40.27174 2.88704 9110 ft 276 kts 158°
2026-05-04 17:31 40.22087 2.92080 7713 ft 270 kts 158°
2026-05-04 17:32 40.18654 2.93986 7102 ft 262 kts 169°
2026-05-04 17:33 40.13362 2.95522 6966 ft 260 kts 172°
2026-05-04 17:33 40.11590 2.96016 6958 ft 261 kts 172°
2026-05-04 17:34 40.06274 2.97595 6842 ft 262 kts 167°
2026-05-04 17:34 40.04696 2.98798 6481 ft 271 kts 138°
2026-05-04 17:35 40.00138 3.02672 5138 ft 257 kts 161°
2026-05-04 17:35 39.96858 3.04341 4268 ft 253 kts 163°
2026-05-04 17:35 39.95221 3.05162 3829 ft 251 kts 162°
2026-05-04 17:36 39.93595 3.05989 3400 ft 251 kts 162°
2026-05-04 17:36 39.91967 3.06813 3136 ft 248 kts 162°
2026-05-04 17:36 39.90368 3.07609 3038 ft 245 kts 162°
2026-05-04 17:36 39.88756 3.08341 2980 ft 244 kts 174°
2026-05-04 17:37 39.87097 3.08158 2994 ft 241 kts 202°
2026-05-04 17:37 39.85587 3.07240 2971 ft 238 kts 209°
2026-05-04 17:37 39.84150 3.06191 2948 ft 237 kts 211°
2026-05-04 17:37 39.82696 3.05160 2943 ft 240 kts 200°
2026-05-04 17:38 39.81073 3.05000 2964 ft 242 kts 171°
2026-05-04 17:38 39.79429 3.05609 2962 ft 239 kts 165°
2026-05-04 17:38 39.77923 3.06295 2951 ft 219 kts 164°
2026-05-04 17:38 39.76557 3.06909 2969 ft 197 kts 168°
2026-05-04 17:39 39.73955 3.07775 2953 ft 182 kts 171°
2026-05-04 17:39 39.72738 3.07980 2959 ft 175 kts 196°
2026-05-04 17:39 39.71745 3.07163 2973 ft 171 kts 228°
2026-05-04 17:40 39.70984 3.06014 2975 ft 168 kts 230°
2026-05-04 17:40 39.70245 3.04844 2969 ft 162 kts 232°
2026-05-04 17:40 39.69551 3.03715 2954 ft 162 kts 232°
2026-05-04 17:40 39.68830 3.02497 2960 ft 179 kts 232°
2026-05-04 17:41 39.68097 3.01233 2974 ft 174 kts 233°
2026-05-04 17:41 39.67379 3.00001 2991 ft 166 kts 233°
2026-05-04 17:41 39.66685 2.98797 2975 ft 167 kts 233°
2026-05-04 17:41 39.65984 2.97568 2976 ft 172 kts 233°
2026-05-04 17:42 39.65302 2.96361 2980 ft 154 kts 232°
2026-05-04 17:42 39.64702 2.95287 2973 ft 145 kts 233°
2026-05-04 17:42 39.64112 2.94202 2978 ft 147 kts 234°
2026-05-04 17:42 39.63544 2.93100 2996 ft 150 kts 236°
2026-05-04 17:43 39.62977 2.91961 2899 ft 151 kts 237°
2026-05-04 17:43 39.62428 2.90811 2651 ft 147 kts 237°
2026-05-04 17:43 39.61908 2.89688 2470 ft 144 kts 237°
2026-05-04 17:43 39.61386 2.88586 2285 ft 141 kts 237°
2026-05-04 17:44 39.60873 2.87523 2079 ft 137 kts 238°
2026-05-04 17:44 39.60401 2.86494 1906 ft 132 kts 237°
2026-05-04 17:44 39.59928 2.85471 1750 ft 131 kts 236°
2026-05-04 17:44 39.59454 2.84464 1595 ft 132 kts 235°
2026-05-04 17:45 39.58960 2.83452 1400 ft 132 kts 236°
2026-05-04 17:45 39.58476 2.82426 1219 ft 133 kts 236°
2026-05-04 17:45 39.57988 2.81391 1054 ft 136 kts 236°
2026-05-04 17:45 39.57499 2.80348 864 ft 135 kts 237°
2026-05-04 17:46 39.57030 2.79337 672 ft 130 kts 237°
2026-05-04 17:46 39.56556 2.78333 477 ft 133 kts 237°
2026-05-04 17:46 39.56066 2.77304 323 ft 136 kts 237°
2026-05-04 17:46 39.55552 2.76189 114 ft 143 kts 240°
2026-05-04 17:47 39.55068 2.75154 28 ft 123 kts 238°
2026-05-04 17:47 39.54694 2.74365 31 ft 75 kts 238°
2026-05-04 17:47 39.54511 2.73988 31 ft 41 kts 238°
2026-05-04 17:47 39.54430 2.73811 29 ft 10 kts 253°
2026-05-04 17:48 39.54452 2.73751 31 ft 7 kts 316°
2026-05-04 17:48 39.54492 2.73719 32 ft 0 kts 329°
2026-05-04 17:48 39.54513 2.73702 32 ft 9 kts 328°
2026-05-04 17:49 39.54577 2.73650 32 ft 10 kts 328°
2026-05-04 17:49 39.54634 2.73636 32 ft 9 kts 12°
2026-05-04 17:49 39.54670 2.73697 31 ft 9 kts 58°
2026-05-04 17:49 39.54707 2.73771 31 ft 10 kts 58°
2026-05-04 17:50 39.54739 2.73841 31 ft 8 kts 59°
2026-05-04 17:50 39.54763 2.73892 30 ft 5 kts 59°
2026-05-04 17:50 39.54793 2.73956 30 ft 13 kts 58°
2026-05-04 17:50 39.54852 2.73994 29 ft 8 kts 350°
2026-05-04 17:51 39.54899 2.73961 29 ft 9 kts 330°
2026-05-04 17:51 39.54956 2.73915 28 ft 11 kts 326°
2026-05-04 17:51 39.55012 2.73869 28 ft 9 kts 328°
2026-05-04 17:51 39.55035 2.73787 27 ft 8 kts 231°
2026-05-04 17:52 39.55009 2.73746 27 ft 3 kts 237°
2026-05-04 17:52 39.55003 2.73733 27 ft 1 kts 238°
2026-05-04 17:52 39.55003 2.73732 27 ft 0 kts 238°